When you browse on this site, cookies collect data to enhance your experience and personalize the content and advertising you see.
Visit our Privacy Policy to learn more. By continuing to use the site, you agree to this use of cookies and data.
  • In Lithuania
  • List of Countries
  • For 7 days
  • Water Temperature
  • Satellite Maps
  • Weather Map
  • Weather Widgets
  • user-avatar
    Login

    Hourly Weather Novoternovskiy

    Today, 20 February, Wednesday

    Time Temperature Precipitation Wind Pressure Humidity
    00:00 -3°C° 0 mm 2 mps 752 mmHg 56%
    01:00 -3°C° 0 mm 2 mps 752 mmHg 56%
    02:00 -3°C° 0 mm 2 mps 752 mmHg 56%
    03:00 -5°C° 0 mm 3 mps 751 mmHg 53%
    04:00 -3°C° 0 mm 2 mps 751 mmHg 53%
    05:00 -3°C° 0 mm 2 mps 751 mmHg 53%
    06:00 -3°C° 0 mm 2 mps 750 mmHg 53%
    07:00 -2°C° 0 mm 2 mps 750 mmHg 50%
    08:00 -1°C° 0 mm 2 mps 750 mmHg 47%
    09:00 -1°C° 0 mm 2 mps 750 mmHg 44%
    10:00 +2°C° 0 mm 2 mps 749 mmHg 39%
    11:00 +4°C° 0 mm 2 mps 749 mmHg 34%
    12:00 +6°C° 0 mm 1 mps 749 mmHg 30%
    13:00 +7°C° 0 mm 1 mps 748 mmHg 29%
    14:00 +7°C° 0 mm 1 mps 748 mmHg 28%
    15:00 +8°C° 0 mm 1 mps 748 mmHg 27%
    16:00 +7°C° 0 mm 1 mps 747 mmHg 32%
    17:00 +6°C° 0 mm 1 mps 747 mmHg 36%
    18:00 +4°C° 0 mm 1 mps 747 mmHg 40%
    19:00 +4°C° 0 mm 1 mps 747 mmHg 42%
    20:00 +4°C° 0 mm 1 mps 747 mmHg 43%
    21:00 +3°C° 0 mm 1 mps 747 mmHg 45%
    22:00 +3°C° 0 mm 1 mps 747 mmHg 46%
    23:00 +2°C° 0 mm 2 mps 747 mmHg 47%

    Tomorrow, 21 February, Thursday

    Time Temperature Precipitation Wind Pressure Humidity
    00:00 +2°C° 0 mm 2 mps 746 mmHg 48%
    01:00 +2°C° 0 mm 2 mps 746 mmHg 49%
    02:00 +2°C° 0 mm 2 mps 746 mmHg 50%
    03:00 +2°C° 0 mm 2 mps 746 mmHg 52%
    04:00 +1°C° 0 mm 2 mps 746 mmHg 52%
    05:00 +1°C° 0 mm 2 mps 746 mmHg 53%
    06:00 +1°C° 0 mm 2 mps 745 mmHg 54%
    07:00 +2°C° 0 mm 2 mps 745 mmHg 50%
    08:00 +3°C° 0 mm 2 mps 745 mmHg 47%
    09:00 +5°C° 0 mm 2 mps 745 mmHg 44%
    10:00 +5°C° 0 mm 3 mps 745 mmHg 40%
    11:00 +7°C° 0 mm 4 mps 744 mmHg 36%
    12:00 +8°C° 0 mm 4 mps 744 mmHg 32%
    13:00 +9°C° 0 mm 5 mps 743 mmHg 36%
    14:00 +9°C° 0 mm 6 mps 743 mmHg 39%
    15:00 +9°C° 0 mm 7 mps 743 mmHg 42%
    16:00 +8°C° 0 mm 7 mps 743 mmHg 52%
    17:00 +6°C° 0 mm 7 mps 743 mmHg 61%
    18:00 +5°C° 0 mm 7 mps 743 mmHg 71%
    19:00 +4°C° 0.1 mm 7 mps 743 mmHg 68%
    20:00 +2°C° 0.1 mm 8 mps 743 mmHg 64%
    21:00 +2°C° 0.1 mm 8 mps 743 mmHg 61%
    22:00 +1°C° 0 mm 9 mps 743 mmHg 63%
    23:00 +1°C° 0 mm 9 mps 744 mmHg 65%

    Day after tomorrow, 22 February, Friday

    Time Temperature Precipitation Wind Pressure Humidity
    00:00 0°C° 0 mm 9 mps 744 mmHg 67%
    01:00 -1°C° 0.1 mm 8 mps 744 mmHg 69%
    02:00 -2°C° 0.1 mm 7 mps 744 mmHg 72%
    03:00 -3°C° 0.1 mm 7 mps 745 mmHg 74%
    04:00 -3°C° 0 mm 6 mps 745 mmHg 72%
    05:00 -4°C° 0 mm 5 mps 745 mmHg 70%
    06:00 -5°C° 0 mm 5 mps 746 mmHg 67%
    07:00 -4°C° 0 mm 5 mps 746 mmHg 63%
    08:00 -4°C° 0 mm 6 mps 746 mmHg 58%
    09:00 -3°C° 0 mm 6 mps 746 mmHg 54%
    10:00 -2°C° 0 mm 7 mps 746 mmHg 50%
    11:00 -1°C° 0 mm 7 mps 746 mmHg 46%
    12:00 0°C° 0 mm 8 mps 746 mmHg 42%
    13:00 +1°C° 0 mm 8 mps 745 mmHg 42%
    14:00 +2°C° 0 mm 8 mps 745 mmHg 42%
    15:00 +2°C° 0 mm 8 mps 745 mmHg 42%
    16:00 +3°C° 0 mm 6 mps 745 mmHg 46%
    17:00 +3°C° 0 mm 4 mps 745 mmHg 50%
    18:00 +3°C° 0 mm 2 mps 745 mmHg 54%
    19:00 +3°C° 0 mm 2 mps 745 mmHg 55%
    20:00 +3°C° 0 mm 2 mps 745 mmHg 56%
    21:00 +2°C° 0 mm 3 mps 745 mmHg 57%
    22:00 +2°C° 0 mm 3 mps 745 mmHg 62%
    23:00 +2°C° 0 mm 3 mps 745 mmHg 66%

    23 February, Saturday

    Time Temperature Precipitation Wind Pressure Humidity
    00:00 +1°C° 0 mm 4 mps 744 mmHg 71%
    01:00 +1°C° 0 mm 4 mps 744 mmHg 71%
    02:00 +1°C° 0 mm 5 mps 744 mmHg 71%
    03:00 +1°C° 0 mm 6 mps 744 mmHg 71%
    04:00 +1°C° 0 mm 6 mps 744 mmHg 71%
    05:00 +1°C° 0 mm 6 mps 744 mmHg 71%
    06:00 +1°C° 0 mm 6 mps 744 mmHg 71%
    07:00 +1°C° 0 mm 6 mps 744 mmHg 70%
    08:00 +2°C° 0 mm 6 mps 744 mmHg 69%
    09:00 +2°C° 0 mm 6 mps 744 mmHg 68%
    10:00 +3°C° 0 mm 6 mps 744 mmHg 66%
    11:00 +5°C° 0 mm 5 mps 744 mmHg 64%
    12:00 +5°C° 0 mm 4 mps 744 mmHg 62%
    13:00 +6°C° 0.1 mm 4 mps 744 mmHg 62%
    14:00 +6°C° 0.1 mm 5 mps 744 mmHg 61%
    15:00 +7°C° 0.1 mm 5 mps 744 mmHg 61%
    16:00 +6°C° 0.2 mm 4 mps 745 mmHg 66%
    17:00 +5°C° 0.2 mm 4 mps 745 mmHg 71%
    18:00 +5°C° 0.2 mm 3 mps 746 mmHg 76%
    19:00 +5°C° 0.4 mm 3 mps 746 mmHg 78%
    20:00 +5°C° 0.4 mm 3 mps 747 mmHg 79%
    21:00 +5°C° 0.4 mm 3 mps 747 mmHg 81%
    22:00 +4°C° 0.5 mm 3 mps 748 mmHg 82%
    23:00 +5°C° 0.5 mm 2 mps 748 mmHg 83%

    24 February, Sunday

    Time Temperature Precipitation Wind Pressure Humidity
    00:00 +5°C° 0.5 mm 2 mps 748 mmHg 85%
    01:00 +5°C° 0.1 mm 2 mps 749 mmHg 85%
    02:00 +6°C° 0.1 mm 1 mps 749 mmHg 85%
    03:00 +5°C° 0.1 mm 1 mps 749 mmHg 85%
    04:00 +5°C° 0.1 mm 1 mps 749 mmHg 86%
    05:00 +5°C° 0.1 mm 1 mps 749 mmHg 87%
    06:00 +5°C° 0.1 mm 1 mps 749 mmHg 89%
    07:00 +5°C° 0 mm 1 mps 750 mmHg 86%
    08:00 +4°C° 0 mm 2 mps 750 mmHg 84%
    09:00 +5°C° 0 mm 2 mps 750 mmHg 81%
    10:00 +5°C° 0 mm 3 mps 750 mmHg 75%
    11:00 +7°C° 0 mm 3 mps 750 mmHg 68%
    12:00 +9°C° 0 mm 3 mps 750 mmHg 61%
    13:00 +9°C° 0 mm 3 mps 750 mmHg 60%
    14:00 +8°C° 0 mm 4 mps 750 mmHg 58%
    15:00 +10°C° 0 mm 4 mps 749 mmHg 56%
    16:00 +8°C° 0 mm 4 mps 750 mmHg 61%
    17:00 +8°C° 0 mm 3 mps 750 mmHg 66%
    18:00 +7°C° 0 mm 3 mps 750 mmHg 71%
    19:00 +7°C° 0 mm 3 mps 750 mmHg 74%
    20:00 +5°C° 0 mm 3 mps 750 mmHg 77%
    21:00 +4°C° 0 mm 3 mps 750 mmHg 79%
    22:00 +4°C° 0 mm 3 mps 750 mmHg 81%
    23:00 +4°C° 0 mm 3 mps 750 mmHg 83%

    25 February, Monday

    Time Temperature Precipitation Wind Pressure Humidity
    00:00 +3°C° 0 mm 3 mps 750 mmHg 85%
    01:00 +3°C° 0 mm 3 mps 750 mmHg 86%
    02:00 +3°C° 0 mm 3 mps 750 mmHg 87%
    03:00 +3°C° 0 mm 3 mps 750 mmHg 89%
    04:00 +3°C° 0 mm 3 mps 750 mmHg 89%
    05:00 +2°C° 0 mm 3 mps 750 mmHg 90%
    06:00 +2°C° 0 mm 3 mps 750 mmHg 91%
    07:00 +3°C° 0 mm 3 mps 750 mmHg 88%
    08:00 +3°C° 0 mm 3 mps 750 mmHg 86%
    09:00 +4°C° 0 mm 4 mps 750 mmHg 83%
    10:00 +5°C° 0 mm 4 mps 750 mmHg 76%
    11:00 +7°C° 0 mm 4 mps 749 mmHg 70%
    12:00 +8°C° 0 mm 4 mps 749 mmHg 64%
    13:00 +10°C° 0 mm 4 mps 748 mmHg 61%
    14:00 +11°C° 0 mm 4 mps 747 mmHg 58%
    15:00 +12°C° 0 mm 4 mps 747 mmHg 55%
    16:00 +11°C° 0 mm 4 mps 746 mmHg 59%
    17:00 +8°C° 0 mm 4 mps 746 mmHg 64%
    18:00 +7°C° 0 mm 4 mps 745 mmHg 68%
    19:00 +7°C° 0 mm 4 mps 744 mmHg 70%
    20:00 +6°C° 0 mm 4 mps 744 mmHg 73%
    21:00 +6°C° 0 mm 5 mps 743 mmHg 75%
    22:00 +5°C° 0 mm 5 mps 743 mmHg 76%
    23:00 +5°C° 0 mm 5 mps 742 mmHg 77%
    Show more